Flag for Canada Weather past 2 weeks in Selkirk, Manitoba, Canada

Now
3 °F

Frigid.


Feels Like: -16 °F
Forecast: -5 / 11 °F
Wind: 17 mph from North

Location: Winnipeg The Forks

Current Time: Jan 29, 2015 at 11:32:28 AM

Latest Report: Jan 29, 2015 at 10:00 AM


Visibility: N/A

Pressure: 30.56 "Hg

Humidity: 72%

Dew point: -4 °F

Location of SelkirkLocation

Historic Weather in Selkirk — Graph

°F

Selkirk temperature yesterday

Maximum temperature yesterday: 31 °F (at 1:00 AM)
Minimum temperature yesterday: 16 °F (at 11:00 PM)
Average temperature yesterday: 28 °F

Past Weeks' High & Low Weather Summary

 TemperatureHumidityPressure
High40 °F (Jan 23, 3:00 PM)100% (Jan 20, 2:00 PM)30.56 "Hg (Jan 20, 2:00 PM)
Low-3 °F (Jan 16, 7:00 AM)62% (Jan 25, 11:00 AM)29.34 "Hg (Jan 17, 3:00 AM)
Average21 °F80%29.93 "Hg
* Reported Jan 14 10:00 AM — Jan 29 10:00 AM, Selkirk, Weather by CustomWeather, © 2014

Note: Actual official high and low records may vary slightly from our data, if they occured in-between our weather recording intervals... More about our weather records

Advertising

Selkirk weather history for previous 24 hours

 ConditionsComfort  
Time TempWeatherWind HumidityBarometerVisibility
10:00 AM
Jan 29
3 °FFrigid.17 mph72%30.56 "HgN/A
9:00 AM5 °FFrigid.21 mph72%30.53 "HgN/A
8:00 AM5 °FFrigid.20 mph72%30.49 "HgN/A
7:00 AM5 °FFrigid.17 mph80%30.45 "HgN/A
5:00 AM8 °FFrigid.20 mph75%30.37 "HgN/A
4:00 AM10 °FFrigid.18 mph75%30.34 "HgN/A
3:00 AM11 °FCold.14 mph79%30.31 "HgN/A
2:00 AM12 °FCold.17 mph78%30.27 "HgN/A
1:00 AM14 °FCold.16 mph78%30.23 "HgN/A
12:00 AM16 °FCold.10 mph81%30.19 "HgN/A
11:00 PM
Jan 28
16 °FCold.20 mph79%30.16 "HgN/A
10:00 PM18 °FCold.18 mph87%30.12 "HgN/A
9:00 PM20 °FCold.18 mph82%30.10 "HgN/A
8:00 PM24 °FCold.15 mph85%30.06 "HgN/A
7:00 PM26 °FChilly.18 mph86%30.01 "HgN/A
6:00 PM29 °FChilly.16 mph88%29.96 "HgN/A
5:00 PM30 °FChilly.14 mph91%29.93 "HgN/A
4:00 PM31 °FChilly.13 mph92%29.90 "HgN/A
3:00 PM31 °FChilly.10 mph94%29.87 "HgN/A
2:00 PM31 °FChilly.7 mph96%29.85 "HgN/A
1:00 PM31 °FChilly.6 mph96%29.86 "HgN/A
12:00 PM31 °FChilly.6 mph96%29.86 "HgN/A
11:00 AM30 °FChilly.8 mph96%29.87 "HgN/A
Weather by CustomWeather, © 2014

See weather overviewHow to use our weather pages